TimeBST,TemperatureF,Dew PointF,Humidity,Sea Level PressureIn,VisibilityMPH,Wind Direction,Wind SpeedMPH,Gust SpeedMPH,PrecipitationIn,Events,Conditions,WindDirDegrees,DateUTC
12:50 AM,54,52,92,29.70,1,NW,13.8,,,Rain,Rain,310,2012-10-05 23:50:00
12:50 AM,53.6,51.8,94,29.68,1.1,NW,13.8,27.6,N/A,Rain,Rain,310,2012-10-05 23:50:00
1:50 AM,48.2,46.4,93,29.71,6.2,NE,20.7,35.7,N/A,,Mostly Cloudy,40,2012-10-06 00:50:00
2:50 AM,48.2,46.4,93,29.74,3.7,NE,17.3,29.9,N/A,Rain,Light Rain,40,2012-10-06 01:50:00
3:50 AM,49,46,87,29.76,12,ENE,13.8,,,Rain,Light Rain,60,2012-10-06 02:50:00
3:50 AM,48.2,46.4,93,29.74,6.2,ENE,13.8,-,N/A,Rain,Light Rain,60,2012-10-06 02:50:00
4:50 AM,48.2,46.4,93,29.77,6.2,ENE,12.7,-,N/A,,Light Drizzle,70,2012-10-06 03:50:00
5:50 AM,48.2,46.4,93,29.80,6.2,NNE,12.7,-,N/A,,Mostly Cloudy,30,2012-10-06 04:50:00
6:50 AM,47,45,88,29.83,16,NE,16.1,,,,Partly Cloudy,50,2012-10-06 05:50:00
6:50 AM,46.4,44.6,93,29.80,6.2,NE,16.1,-,N/A,,Mostly Cloudy,50,2012-10-06 05:50:00
7:50 AM,46.4,44.6,93,29.83,6.2,ENE,12.7,-,N/A,,Mostly Cloudy,60,2012-10-06 06:50:00
8:50 AM,48.2,44.6,87,29.86,6.2,ENE,11.5,-,N/A,,Scattered Clouds,70,2012-10-06 07:50:00
9:50 AM,51,45,72,29.90,12,ENE,16.1,,,,Partly Cloudy,70,2012-10-06 08:50:00
9:50 AM,50.0,44.6,82,29.89,6.2,ENE,16.1,-,N/A,,Scattered Clouds,70,2012-10-06 08:50:00
10:50 AM,53.6,44.6,72,29.89,6.2,East,16.1,-,N/A,,Scattered Clouds,80,2012-10-06 09:50:00
11:50 AM,53.6,42.8,67,29.89,6.2,East,20.7,-,N/A,,Scattered Clouds,80,2012-10-06 10:50:00
12:50 PM,55,41,49,29.92,16,ENE,18.4,,,,Scattered Clouds,70,2012-10-06 11:50:00
12:50 PM,55.4,41.0,58,29.92,6.2,ENE,18.4,31.1,N/A,,Partly Cloudy,70,2012-10-06 11:50:00
1:50 PM,57.2,42.8,59,29.92,6.2,ENE,17.3,28.8,N/A,,Partly Cloudy,70,2012-10-06 12:50:00
2:50 PM,57.2,42.8,59,29.92,6.2,East,16.1,-,N/A,,Partly Cloudy,90,2012-10-06 13:50:00
3:50 PM,56,44,53,29.93,16,East,15.0,,,,Scattered Clouds,80,2012-10-06 14:50:00
3:50 PM,57.2,42.8,59,29.92,6.2,East,15.0,-,N/A,,Partly Cloudy,80,2012-10-06 14:50:00
4:50 PM,55.4,44.6,67,29.92,6.2,East,13.8,-,N/A,,Partly Cloudy,90,2012-10-06 15:50:00
5:50 PM,55.4,44.6,67,29.95,6.2,East,10.4,-,N/A,,Partly Cloudy,80,2012-10-06 16:50:00
6:50 PM,51,46,76,29.98,16,ENE,9.2,,,,Scattered Clouds,60,2012-10-06 17:50:00
6:50 PM,50.0,46.4,87,29.95,6.2,ENE,9.2,-,N/A,,Scattered Clouds,60,2012-10-06 17:50:00
7:50 PM,50.0,46.4,87,29.98,6.2,NNE,9.2,-,N/A,,Scattered Clouds,30,2012-10-06 18:50:00
8:50 PM,50.0,46.4,87,30.01,6.2,NE,12.7,-,N/A,,Scattered Clouds,50,2012-10-06 19:50:00
9:50 PM,49,44,79,30.04,12,NE,12.7,,,,Partly Cloudy,50,2012-10-06 20:50:00
9:50 PM,50.0,44.6,82,30.01,6.2,NE,12.7,-,N/A,,Scattered Clouds,50,2012-10-06 20:50:00
10:50 PM,46.4,42.8,87,30.04,6.2,NE,9.2,-,N/A,,Scattered Clouds,50,2012-10-06 21:50:00
11:50 PM,46.4,41.0,81,30.04,6.2,NE,10.4,-,N/A,,Scattered Clouds,50,2012-10-06 22:50:00